Osceola Municipal, IA

4:40 PM CDT on May 25, 2017 (GMT -0500)
Osceola Municipal

Weather History for KI75 - January, 2014

Change the Weather History Date:

Friday, January 3, 2014

  Actual Average (KCNC) Record (KCNC)
Temperature  
Mean Temperature 10 °F -  
Max Temperature 30 °F 32 °F 57 °F (1998)
Min Temperature -11 °F 11 °F -17 °F (1979)
Degree Days  
Heating Degree Days 56    
Moisture  
Dew Point 6 °F    
Average Humidity 72    
Maximum Humidity 81    
Minimum Humidity 64    
Precipitation  
Precipitation 0.00 in - - ()
Sea Level Pressure  
Sea Level Pressure 30.01 in    
Wind  
Wind Speed 12 mph (South)    
Max Wind Speed 26 mph    
Max Gust Speed 38 mph    
Visibility 10 miles    
Events      
Averages and records for this station are not official NWS values.
T = Trace of Precipitation, MM = Missing Value Source: NWS Daily Summary

Daily Weather History Graph

Daily Weather History Graph

Search for Another Location

Airport or City:

Trip Planner

Search our weather history database for the weather conditions in past years. The results will help you decide how hot, cold, wet, or windy it might be!

Date:

Astronomy

Jan. 03, 2014 Rise Set
Actual Time 7:39 AM CST 4:58 PM CST
Civil Twilight 7:09 AM CST 5:29 PM CST
Nautical Twilight 6:34 AM CST 6:04 PM CST
Astronomical Twilight 6:01 AM CST 6:37 PM CST
Moon 9:04 AM CST (1/3) 8:10 PM CST (1/3)
Length of Visible Light 10h 20m
Length of Day
9h 18m
Waxing Crescent, 8% of the Moon is Illuminated
Jan 3
Waxing Crescent
Jan 7
First Quarter
Jan 15
Full
Jan 23
Last Quarter
Jan 30
New

Hourly Weather History & Observations

Time (CST) Temp. Windchill Dew Point Humidity Pressure Visibility Wind Dir Wind Speed Gust Speed Precip Events Conditions
12:15 AM -6.9 °F -19.7 °F -11.6 °F 80% 30.41 in 10.0 mi West 5.8 mph - N/A   Clear
12:35 AM -8.1 °F -19.4 °F -12.6 °F 81% 30.41 in 10.0 mi West 4.6 mph - N/A   Clear
12:55 AM -9.4 °F -20.9 °F -14.4 °F 78% 30.40 in 10.0 mi SSW 4.6 mph - N/A   Clear
1:15 AM -9.9 °F -21.5 °F -14.8 °F 79% 30.40 in 10.0 mi SW 4.6 mph - N/A   Clear
1:35 AM -8.9 °F -18.0 °F -13.9 °F 79% 30.38 in 10.0 mi South 3.5 mph - N/A   Clear
1:55 AM -10.8 °F -22.5 °F -15.5 °F 80% 30.37 in 10.0 mi South 4.6 mph - N/A   Clear
2:15 AM -9.2 °F -20.7 °F -13.7 °F 81% 30.36 in 10.0 mi SSE 4.6 mph - N/A   Clear
2:35 AM -11.2 °F -23.0 °F -15.9 °F 80% 30.36 in 10.0 mi South 4.6 mph - N/A   Clear
2:55 AM -10.8 °F -22.5 °F -15.3 °F 80% 30.36 in 10.0 mi South 4.6 mph - N/A   Clear
3:15 AM -10.1 °F -23.6 °F -14.8 °F 80% 30.35 in 10.0 mi SSE 5.8 mph - N/A   Clear
3:35 AM -8.9 °F -23.6 °F -13.7 °F 79% 30.34 in 10.0 mi SE 6.9 mph - N/A   Clear
3:55 AM -8.7 °F -21.9 °F -13.2 °F 81% 30.33 in 10.0 mi SE 5.8 mph - N/A   Clear
4:15 AM -5.8 °F -19.9 °F -10.3 °F 81% 30.32 in 10.0 mi SSE 6.9 mph - N/A   Clear
4:35 AM -3.1 °F -17.9 °F -7.6 °F 81% 30.33 in 10.0 mi SSE 8.1 mph - N/A   Clear
4:55 AM -2.2 °F -16.8 °F -7.1 °F 80% 30.31 in 10.0 mi SSE 8.1 mph - N/A   Clear
5:15 AM -3.1 °F -17.9 °F -8.1 °F 79% 30.31 in 10.0 mi South 8.1 mph - N/A   Clear
5:35 AM -2.4 °F -19.2 °F -7.6 °F 78% 30.28 in 10.0 mi SSE 10.4 mph - N/A   Clear
5:55 AM -1.8 °F -17.5 °F -7.1 °F 78% 30.28 in 10.0 mi South 9.2 mph - N/A   Clear
6:15 AM -1.8 °F -19.4 °F -7.2 °F 78% 30.27 in 10.0 mi SSE 11.5 mph - N/A   Clear
6:35 AM -1.7 °F -19.2 °F -7.2 °F 77% 30.26 in 10.0 mi South 11.5 mph - N/A   Clear
6:55 AM -1.7 °F -18.3 °F -7.1 °F 78% 30.26 in 10.0 mi SSE 10.4 mph - N/A   Scattered Clouds
7:15 AM -0.6 °F -18.6 °F -6.0 °F 78% 30.23 in 10.0 mi SSE 12.7 mph - N/A   Mostly Cloudy
7:35 AM 0.5 °F -17.3 °F -5.3 °F 77% 30.22 in 10.0 mi SSE 12.7 mph 17.3 mph N/A   Overcast
7:55 AM 1.9 °F -16.2 °F -4.7 °F 74% 30.20 in 10.0 mi SSE 13.8 mph - N/A   Overcast
8:15 AM 3.0 °F -17.8 °F -4.2 °F 72% 30.19 in 10.0 mi SSE 19.6 mph - N/A   Overcast
8:35 AM 4.1 °F -13.4 °F -4.0 °F 69% 30.18 in 10.0 mi South 13.8 mph 20.7 mph N/A   Overcast
8:55 AM 5.0 °F -13.0 °F -3.3 °F 69% 30.17 in 10.0 mi SSE 15.0 mph 20.7 mph N/A   Overcast
9:15 AM 6.4 °F -12.3 °F -2.6 °F 67% 30.16 in 10.0 mi South 17.3 mph 21.9 mph N/A   Overcast
9:35 AM 7.5 °F -10.3 °F -1.8 °F 66% 30.15 in 10.0 mi South 16.1 mph - N/A   Overcast
9:55 AM 9.1 °F -10.7 °F -0.8 °F 64% 30.14 in 10.0 mi SSE 21.9 mph - N/A   Scattered Clouds
10:15 AM 10.0 °F -8.1 °F -0.0 °F 64% 30.13 in 10.0 mi South 18.4 mph - N/A   Scattered Clouds
10:35 AM 10.9 °F -6.5 °F 1.2 °F 65% 30.11 in 10.0 mi South 17.3 mph 24.2 mph N/A   Clear
10:55 AM 12.9 °F -2.2 °F 3.2 °F 65% 30.09 in 10.0 mi SSE 13.8 mph 20.7 mph N/A   Clear
11:15 AM 15.1 °F -0.6 °F 5.5 °F 66% 30.08 in 10.0 mi South 16.1 mph 23.0 mph N/A   Clear
11:35 AM 16.9 °F -0.5 °F 7.7 °F 67% 30.05 in 10.0 mi South 21.9 mph 26.5 mph N/A   Clear
11:55 AM 18.3 °F 1.4 °F 9.0 °F 67% 30.03 in 7.0 mi South 21.9 mph 27.6 mph N/A   Clear
12:15 PM 19.4 °F 3.2 °F 9.9 °F 66% 30.01 in 10.0 mi SSE 20.7 mph 26.5 mph N/A   Clear
12:35 PM 19.4 °F 3.6 °F 10.4 °F 68% 29.98 in 10.0 mi SSE 19.6 mph 31.1 mph N/A   Clear
12:55 PM 20.3 °F 4.0 °F 11.1 °F 68% 29.95 in 10.0 mi South 21.9 mph 28.8 mph N/A   Clear
1:15 PM 21.0 °F 4.6 °F 11.3 °F 66% 29.93 in 10.0 mi South 23.0 mph 31.1 mph N/A   Clear
1:35 PM 22.5 °F 7.2 °F 12.4 °F 65% 29.91 in 10.0 mi South 20.7 mph 27.6 mph N/A   Clear
1:55 PM 23.2 °F 7.5 °F 13.1 °F 65% 29.89 in 10.0 mi South 23.0 mph 27.6 mph N/A   Clear
2:15 PM 24.3 °F 10.4 °F 14.0 °F 65% 29.86 in 10.0 mi South 18.4 mph 29.9 mph N/A   Clear
2:35 PM 25.2 °F 10.4 °F 14.5 °F 64% 29.84 in 10.0 mi South 21.9 mph 27.6 mph N/A   Clear
2:55 PM 25.9 °F 12.9 °F 15.4 °F 65% 29.82 in 10.0 mi South 17.3 mph 27.6 mph N/A   Clear
3:15 PM 26.4 °F 11.5 °F 15.8 °F 64% 29.80 in 10.0 mi South 24.2 mph 31.1 mph N/A   Clear
3:35 PM 26.6 °F 12.4 °F 16.2 °F 65% 29.78 in 10.0 mi South 21.9 mph 26.5 mph N/A   Clear
3:55 PM 27.0 °F 13.5 °F 16.5 °F 65% 29.77 in 10.0 mi South 19.6 mph 29.9 mph N/A   Clear
4:15 PM 27.1 °F 14.5 °F 17.2 °F 66% 29.77 in 10.0 mi South 17.3 mph 27.6 mph N/A   Clear
4:35 PM 27.1 °F 13.4 °F 17.6 °F 67% 29.77 in 10.0 mi South 20.7 mph 31.1 mph N/A   Clear
4:55 PM 26.8 °F 12.6 °F 17.6 °F 68% 29.76 in 10.0 mi South 21.9 mph 26.5 mph N/A   Clear
5:15 PM 26.2 °F 12.6 °F 18.0 °F 71% 29.75 in 10.0 mi South 19.6 mph 24.2 mph N/A   Clear
5:35 PM 26.2 °F 11.9 °F 18.1 °F 71% 29.74 in 10.0 mi South 21.9 mph 28.8 mph N/A   Clear
5:55 PM 26.1 °F 12.7 °F 18.5 °F 73% 29.74 in 10.0 mi South 18.4 mph 27.6 mph N/A   Clear
6:15 PM 26.2 °F 12.2 °F 18.7 °F 73% 29.74 in 10.0 mi South 20.7 mph 27.6 mph N/A   Clear
6:35 PM 26.6 °F 13.4 °F 19.0 °F 73% 29.73 in 10.0 mi South 18.4 mph 26.5 mph N/A   Clear
6:55 PM 27.1 °F 14.1 °F 19.4 °F 73% 29.73 in 10.0 mi South 18.4 mph 26.5 mph N/A   Clear
7:15 PM 27.5 °F 14.2 °F 19.8 °F 73% 29.73 in 10.0 mi South 19.6 mph 26.5 mph N/A   Clear
7:35 PM 28.4 °F 15.1 °F 20.3 °F 72% 29.72 in 10.0 mi South 20.7 mph 29.9 mph N/A   Clear
7:55 PM 28.8 °F 14.6 °F 20.7 °F 72% 29.71 in 10.0 mi South 24.2 mph 31.1 mph N/A   Clear
8:15 PM 28.9 °F 15.1 °F 21.0 °F 72% 29.70 in 10.0 mi South 23.0 mph 29.9 mph N/A   Clear
8:35 PM 28.9 °F 15.1 °F 21.0 °F 72% 29.70 in 10.0 mi South 23.0 mph 27.6 mph N/A   Clear
8:55 PM 29.1 °F 15.7 °F 21.2 °F 72% 29.69 in 10.0 mi South 21.9 mph 28.8 mph N/A   Clear
9:15 PM 29.1 °F 16.0 °F 21.2 °F 72% 29.67 in 10.0 mi South 20.7 mph 28.8 mph N/A   Clear
9:35 PM 29.3 °F 15.6 °F 21.6 °F 73% 29.67 in 10.0 mi South 23.0 mph 28.8 mph N/A   Clear
9:55 PM 29.3 °F 15.3 °F 21.7 °F 73% 29.66 in 10.0 mi South 24.2 mph 31.1 mph N/A   Clear
10:15 PM 29.8 °F 16.0 °F 21.7 °F 72% 29.66 in 10.0 mi South 24.2 mph 31.1 mph N/A   Clear
10:35 PM 29.8 °F 15.5 °F 21.7 °F 72% 29.65 in 10.0 mi South 26.5 mph 38.0 mph N/A   Clear
10:55 PM 30.0 °F 16.3 °F 21.6 °F 71% 29.65 in 10.0 mi South 24.2 mph 32.2 mph N/A   Clear
11:15 PM 29.7 °F 15.8 °F 21.6 °F 72% 29.64 in 10.0 mi South 24.2 mph 34.5 mph N/A   Clear
11:35 PM 29.7 °F 16.4 °F 21.2 °F 71% 29.65 in 10.0 mi South 21.9 mph 27.6 mph N/A   Clear
11:55 PM 29.7 °F 16.7 °F 21.2 °F 71% 29.65 in 10.0 mi South 20.7 mph 25.3 mph N/A   Clear